[[{"header":{"parameterUnit":"m.s-1","parameterCategory":1,"la1":30.2991,"la2":30.254,"lo1":-89.0895,"lo2":-89.0444,"dy":0.0017,"dx":0.0017,"nx":28,"ny":28,"refTime":"2024-05-18T21:00:00:Z","depth":0,"parameterNumber":2,"parameterNumberName":"U-component_of_WINDS"},"data":[0,0,0,0,0,0,0,0,0,0,0,0,0,0,0,0,0,0,0,0,0,0,0,0,0,0,0,0,0,0,0,0,0,0,0,0,0,0,0,0,0,0,0,0,0,0,0,0,0,0,0,0,0,0,0,0,0,0,-0.8028,-0.8027,0,-0.7938,-0.7937,-0.7936,-0.7857,-0.7856,-0.7855,-0.7854,-0.7762,-0.776,-0.7759,0,0,0,0,0,0,0,0,0,0,0,0,0,-0.8132,-0.813,-0.8028,-0.8027,-0.8026,-0.7938,-0.7937,-0.7936,-0.7857,-0.7856,-0.7855,-0.7854,-0.7763,-0.7761,-0.7759,0,0,0,0,0,0,0,0,0,0,0,0,0,-0.8069,-0.813,-0.8029,-0.7976,-0.7971,-0.7938,-0.7937,-0.7935,-0.7857,-0.7856,-0.7855,-0.7853,-0.7763,-0.7761,-0.7758,-0.7771,0,0,-0.7751,-0.775,0,0,0,0,0,0,0,0,-0.8073,-0.8065,-0.7985,-0.798,-0.7973,-0.7907,-0.7939,-0.788,-0.7858,-0.79,-0.7854,-0.7853,-0.7811,-0.7805,-0.7791,-0.7767,-0.7763,-0.7751,-0.7749,-0.7748,-0.7748,0,0,0,0,0,0,0,-0.8077,-0.8069,-0.7993,-0.7984,-0.7977,-0.7957,-0.7947,-0.7928,-0.7865,-0.7897,-0.7891,-0.7881,-0.7808,-0.7794,-0.7788,-0.7761,-0.7751,-0.7749,-0.7747,-0.7746,-0.774,-0.7742,0,0,0,0,0,0,-0.8089,-0.8073,-0.7995,-0.799,-0.8021,-0.7956,-0.7945,-0.793,-0.7865,-0.7853,-0.7882,-0.7878,-0.7798,-0.7791,-0.7785,-0.7794,-0.7748,-0.7746,-0.7745,-0.7739,-0.7741,-0.7742,0,0,0,0,0,0,-0.8092,-0.8083,-0.7999,-0.803,-0.8017,-0.7956,-0.794,-0.7929,-0.7914,-0.7854,-0.7842,-0.7879,-0.7797,-0.7788,-0.7774,-0.779,-0.7745,-0.7743,-0.7738,-0.774,-0.7741,-0.7813,0,0,0,0,0,0,-0.8095,-0.8085,-0.8089,-0.803,-0.8016,-0.7991,-0.7941,-0.7928,-0.791,-0.7903,-0.7848,-0.7837,-0.7795,-0.7779,-0.7772,-0.7786,-0.7741,-0.7736,-0.7739,-0.7741,-0.7809,-0.7818,-0.7824,0,0,0,0,0,-0.8099,-0.8113,-0.809,-0.8081,-0.802,-0.7992,-0.7984,-0.7935,-0.7912,-0.7916,-0.7876,-0.7839,-0.7789,-0.7778,-0.777,-0.7783,-0.7735,-0.7738,-0.7741,-0.7806,-0.7816,-0.7824,0,0,0,0,0,0,-0.8176,-0.8105,-0.8078,-0.8073,-0.8039,-0.7979,-0.7982,-0.7947,-0.7919,-0.7914,-0.7855,-0.7843,-0.7836,-0.7808,-0.7796,-0.7791,-0.7757,-0.7758,-0.7809,-0.7818,-0.7826,-0.7832,-0.7739,0,0,0,0,0,-0.8192,-0.8176,-0.8114,-0.8116,-0.81,-0.8044,-0.803,-0.7995,-0.7958,-0.7943,-0.7903,-0.7868,-0.7844,-0.7829,-0.7804,-0.7805,-0.7791,-0.781,-0.7817,-0.7824,-0.7826,-0.7823,-0.783,-0.7752,-0.7752,-0.7752,0,0,-0.8226,-0.8185,-0.8178,-0.813,-0.81,-0.8083,-0.8033,-0.8018,-0.8004,-0.7941,-0.7925,-0.7894,-0.7851,-0.7844,-0.7839,-0.7821,-0.7844,-0.7827,-0.7833,-0.7831,-0.7826,-0.7834,-0.784,-0.7754,-0.7753,-0.7753,0,0,-0.8279,-0.8247,-0.8244,-0.8214,-0.8169,-0.8131,-0.8131,-0.8075,-0.8052,-0.8035,-0.7986,-0.797,-0.793,-0.7901,-0.7881,-0.7921,-0.7885,-0.7915,-0.7954,-0.7952,-0.7958,-0.7963,-0.7977,-0.7982,-0.7917,-0.7917,-0.7917,0,-0.8327,-0.83,-0.8247,-0.8235,-0.8215,-0.8156,-0.8152,-0.8126,-0.8074,-0.8062,-0.8042,-0.799,-0.7956,-0.7941,-0.7951,-0.7937,-0.7934,-0.7921,-0.7961,-0.7966,-0.797,-0.7982,-0.7988,-0.7921,-0.792,-0.792,-0.792,0,-0.8361,-0.8343,-0.8346,-0.8297,-0.8278,-0.827,-0.8216,-0.8202,-0.8169,-0.8133,-0.8116,-0.8074,-0.8038,-0.8032,-0.8,-0.8012,-0.8002,-0.7973,-0.7937,-0.7982,-0.7993,-0.7997,-0.7926,-0.7925,-0.7924,-0.7923,0,0,-0.846,-0.8382,-0.8384,-0.836,-0.8305,-0.829,-0.8279,-0.8244,-0.8233,-0.8199,-0.8188,-0.8155,-0.8127,-0.8104,-0.8068,-0.8066,-0.8099,-0.8036,-0.8034,-0.8049,-0.8109,-0.8131,-0.8137,-0.8075,-0.8075,-0.8076,-0.8112,0,-0.8504,-0.8481,-0.8432,-0.8425,-0.8407,-0.8349,-0.834,-0.8304,-0.827,-0.825,-0.8212,-0.819,-0.8155,-0.814,-0.8136,-0.8096,-0.811,-0.8093,-0.8063,-0.8063,-0.8076,-0.8143,-0.8167,-0.8203,-0.8116,-0.8117,-0.8117,0,-0.8552,-0.8521,-0.8511,-0.8456,-0.8446,-0.8438,-0.8402,-0.8383,-0.8341,-0.8316,-0.8291,-0.825,-0.8235,-0.8202,-0.8179,-0.8169,-0.8153,-0.8132,-0.8132,-0.8127,-0.8093,-0.814,-0.8213,-0.8219,-0.8123,-0.8123,-0.8122,0,-0.8625,-0.8581,-0.8569,-0.8551,-0.8486,-0.8481,-0.8454,-0.8411,-0.8392,-0.836,-0.8347,-0.8314,-0.8296,-0.827,-0.8221,-0.8203,-0.8204,-0.8168,-0.8182,-0.8184,-0.8185,-0.8186,-0.8257,-0.8176,-0.8176,-0.8176,-0.8176,0,-0.8678,-0.8675,-0.86,-0.8593,-0.8587,-0.8531,-0.8526,-0.8493,-0.8455,-0.844,-0.8388,-0.8375,-0.8311,-0.829,-0.8252,-0.8238,-0.8231,-0.821,-0.82,-0.8214,-0.8217,-0.8203,-0.82,-0.8177,-0.8177,-0.8177,-0.8177,0,-0.8759,-0.8709,-0.8692,-0.8632,-0.8616,-0.8614,-0.8562,-0.8552,-0.8515,-0.8496,-0.8489,-0.843,-0.8402,-0.8351,-0.8309,-0.8283,-0.8278,-0.826,-0.8292,-0.8286,-0.8303,-0.8302,-0.8368,-0.8373,-0.829,-0.8291,-0.8292,0,-0.8797,-0.8792,-0.8731,-0.8717,-0.8691,-0.867,-0.865,-0.8594,-0.8576,-0.8527,-0.8524,-0.8492,-0.8464,-0.8423,-0.8376,-0.8343,-0.8324,-0.835,-0.8319,-0.8333,-0.8324,-0.8325,-0.8323,-0.8357,-0.8358,-0.8359,-0.836,0,-0.8868,-0.8843,-0.8817,-0.8783,-0.8761,-0.8731,-0.8698,-0.869,-0.8626,-0.8608,-0.858,-0.8558,-0.8515,-0.8484,-0.8444,-0.8415,-0.8377,-0.837,-0.8371,-0.8386,-0.8404,-0.8394,-0.8311,-0.8368,-0.8368,-0.8367,-0.8366,-0.8366,-0.8927,-0.892,-0.8876,-0.8848,-0.8818,-0.8788,-0.8776,-0.8736,-0.8711,-0.8672,-0.864,-0.8614,-0.857,-0.8513,-0.8486,-0.8464,-0.8446,-0.8448,-0.8449,-0.845,-0.8456,-0.8408,-0.8457,-0.8456,-0.8456,-0.8456,-0.8456,0,-0.8996,-0.8964,-0.8939,-0.8895,-0.8873,-0.8838,-0.88,-0.8784,-0.8761,-0.8724,-0.8697,-0.8663,-0.8633,-0.8583,-0.8548,-0.854,-0.8521,-0.8532,-0.8532,-0.8526,-0.8474,-0.8476,-0.8548,-0.8548,-0.8548,-0.8548,-0.8548,-0.8548,-0.9028,-0.9014,-0.8984,-0.8954,-0.8922,-0.8895,-0.8876,-0.8848,-0.8818,-0.8783,-0.8757,-0.8725,-0.8682,-0.8643,-0.8613,-0.8599,-0.8588,-0.8605,-0.8586,-0.8539,-0.853,-0.8522,-0.8523,-0.8603,-0.8604,-0.8639,-0.8639,-0.864]},{"header":{"parameterUnit":"m.s-1","parameterCategory":1,"la1":30.2991,"la2":30.254,"lo1":-89.0895,"lo2":-89.0444,"dy":0.0017,"dx":0.0017,"nx":28,"ny":28,"refTime":"2024-05-18T21:00:00:Z","depth":0,"parameterNumber":3,"parameterNumberName":"V-component_of_WINDS"},"data":[0,0,0,0,0,0,0,0,0,0,0,0,0,0,0,0,0,0,0,0,0,0,0,0,0,0,0,0,0,0,0,0,0,0,0,0,0,0,0,0,0,0,0,0,0,0,0,0,0,0,0,0,0,0,0,0,0,0,-1.2202,-1.2203,0,-1.2275,-1.2276,-1.2277,-1.2294,-1.2293,-1.2293,-1.2292,-1.2365,-1.2368,-1.237,0,0,0,0,0,0,0,0,0,0,0,0,0,-1.2076,-1.2079,-1.2202,-1.2203,-1.2204,-1.2275,-1.2276,-1.2277,-1.2294,-1.2293,-1.2292,-1.2292,-1.2365,-1.2367,-1.237,0,0,0,0,0,0,0,0,0,0,0,0,0,-1.2138,-1.2079,-1.2202,-1.2221,-1.2223,-1.2275,-1.2276,-1.2277,-1.2294,-1.2293,-1.2292,-1.2292,-1.2364,-1.2367,-1.2371,-1.2408,0,0,-1.2382,-1.2383,0,0,0,0,0,0,0,0,-1.2135,-1.2143,-1.2217,-1.222,-1.2222,-1.2274,-1.2259,-1.2321,-1.2294,-1.2267,-1.2292,-1.2291,-1.2336,-1.2342,-1.2357,-1.2412,-1.2415,-1.2382,-1.2384,-1.2386,-1.2387,0,0,0,0,0,0,0,-1.213,-1.214,-1.2231,-1.2218,-1.2221,-1.2225,-1.2233,-1.227,-1.2305,-1.2269,-1.2271,-1.2279,-1.2337,-1.2353,-1.2359,-1.2416,-1.2382,-1.2385,-1.2388,-1.2389,-1.2505,-1.2506,0,0,0,0,0,0,-1.2123,-1.2136,-1.2229,-1.2233,-1.2176,-1.2228,-1.2237,-1.2258,-1.2304,-1.231,-1.228,-1.228,-1.2347,-1.2354,-1.2361,-1.2408,-1.2386,-1.2389,-1.2391,-1.2504,-1.2506,-1.2507,0,0,0,0,0,0,-1.212,-1.2131,-1.2226,-1.2185,-1.2197,-1.2231,-1.2255,-1.226,-1.2277,-1.2312,-1.2318,-1.229,-1.2347,-1.2356,-1.2397,-1.2411,-1.2391,-1.2394,-1.2503,-1.2505,-1.2506,-1.2502,0,0,0,0,0,0,-1.2117,-1.213,-1.2145,-1.2185,-1.22,-1.226,-1.2256,-1.2262,-1.2283,-1.2284,-1.2324,-1.2329,-1.2347,-1.2391,-1.24,-1.2416,-1.2397,-1.2502,-1.2504,-1.2506,-1.2501,-1.2503,-1.2505,0,0,0,0,0,-1.2112,-1.214,-1.2145,-1.2156,-1.2219,-1.2261,-1.2269,-1.2289,-1.2284,-1.2299,-1.2322,-1.2328,-1.2408,-1.2395,-1.2405,-1.2422,-1.2501,-1.2504,-1.2506,-1.25,-1.2503,-1.2505,0,0,0,0,0,0,-1.21,-1.2146,-1.2152,-1.2194,-1.2224,-1.2263,-1.2283,-1.2291,-1.2322,-1.2321,-1.2345,-1.2354,-1.2392,-1.2411,-1.2396,-1.2461,-1.2455,-1.2459,-1.2447,-1.245,-1.2452,-1.2446,-1.24,0,0,0,0,0,-1.2102,-1.2133,-1.2171,-1.2205,-1.2219,-1.2249,-1.2268,-1.2281,-1.2312,-1.2324,-1.235,-1.2379,-1.2411,-1.2432,-1.2463,-1.2504,-1.2513,-1.2521,-1.2523,-1.2524,-1.2527,-1.2551,-1.2555,-1.2513,-1.2513,-1.2513,0,0,-1.2107,-1.2136,-1.2154,-1.2203,-1.2227,-1.2258,-1.2259,-1.2291,-1.2315,-1.2329,-1.2369,-1.2389,-1.2423,-1.2464,-1.2484,-1.2481,-1.2541,-1.2527,-1.2528,-1.253,-1.2553,-1.2557,-1.2561,-1.2515,-1.2514,-1.2514,0,0,-1.2132,-1.2157,-1.2188,-1.2212,-1.2249,-1.2269,-1.2276,-1.2315,-1.2329,-1.2369,-1.2381,-1.2409,-1.2463,-1.2487,-1.2507,-1.2542,-1.2548,-1.2551,-1.2561,-1.2583,-1.2587,-1.259,-1.2602,-1.2606,-1.2554,-1.2554,-1.2554,0,-1.2133,-1.218,-1.2202,-1.2235,-1.2256,-1.2272,-1.2303,-1.2325,-1.237,-1.2385,-1.2382,-1.245,-1.2475,-1.2522,-1.253,-1.2546,-1.2555,-1.2546,-1.2584,-1.2588,-1.2591,-1.2603,-1.2607,-1.2554,-1.2554,-1.2554,-1.2554,0,-1.218,-1.2213,-1.2233,-1.2277,-1.2301,-1.2332,-1.2359,-1.238,-1.2392,-1.2411,-1.2453,-1.2483,-1.252,-1.2532,-1.2544,-1.2581,-1.2579,-1.258,-1.2574,-1.2594,-1.2606,-1.2611,-1.2554,-1.2554,-1.2554,-1.2554,0,0,-1.2198,-1.2254,-1.2261,-1.2281,-1.2324,-1.2349,-1.2382,-1.2419,-1.2437,-1.2468,-1.2495,-1.2541,-1.2543,-1.2565,-1.2579,-1.2599,-1.2625,-1.2598,-1.2599,-1.2601,-1.2668,-1.2666,-1.2671,-1.263,-1.2631,-1.2631,-1.2665,0,-1.2227,-1.2286,-1.2307,-1.2356,-1.2386,-1.2402,-1.243,-1.2459,-1.2478,-1.2507,-1.2528,-1.256,-1.256,-1.2574,-1.2594,-1.2617,-1.2638,-1.2615,-1.2655,-1.2656,-1.2645,-1.2677,-1.2676,-1.2705,-1.2669,-1.267,-1.2671,0,-1.2269,-1.2301,-1.2353,-1.2392,-1.2405,-1.243,-1.2467,-1.2494,-1.2527,-1.254,-1.2565,-1.2578,-1.2612,-1.2605,-1.2652,-1.2636,-1.2654,-1.2668,-1.267,-1.2674,-1.2664,-1.2681,-1.2715,-1.272,-1.2678,-1.2677,-1.2677,0,-1.2277,-1.2333,-1.2371,-1.2388,-1.2434,-1.2452,-1.2472,-1.2504,-1.2525,-1.2557,-1.2571,-1.2606,-1.2625,-1.2652,-1.2674,-1.2667,-1.272,-1.2714,-1.2731,-1.273,-1.2741,-1.274,-1.2777,-1.2753,-1.2753,-1.2753,-1.2753,0,-1.2307,-1.2338,-1.2375,-1.2398,-1.2433,-1.2458,-1.2491,-1.2512,-1.2541,-1.2569,-1.2585,-1.261,-1.2638,-1.2667,-1.2685,-1.2721,-1.273,-1.2741,-1.2745,-1.2739,-1.2738,-1.2751,-1.2749,-1.2754,-1.2754,-1.2754,-1.2753,0,-1.2321,-1.2347,-1.239,-1.2431,-1.2442,-1.2466,-1.25,-1.2524,-1.2544,-1.2579,-1.2588,-1.2621,-1.2656,-1.2681,-1.2726,-1.2738,-1.2777,-1.2781,-1.2766,-1.2768,-1.2783,-1.2781,-1.283,-1.2838,-1.2809,-1.2809,-1.2809,0,-1.2338,-1.2362,-1.2406,-1.2426,-1.2446,-1.2478,-1.25,-1.2525,-1.2548,-1.2588,-1.2606,-1.2642,-1.2673,-1.2728,-1.2755,-1.279,-1.2795,-1.2809,-1.28,-1.2793,-1.2794,-1.2792,-1.2795,-1.281,-1.2811,-1.2811,-1.2811,0,-1.2366,-1.2378,-1.2409,-1.2446,-1.2472,-1.2501,-1.2531,-1.2546,-1.2577,-1.2601,-1.2637,-1.2661,-1.2708,-1.2743,-1.2781,-1.2801,-1.2811,-1.2814,-1.282,-1.2814,-1.2803,-1.2809,-1.2769,-1.2812,-1.2812,-1.2812,-1.2812,-1.2812,-1.2382,-1.2404,-1.2439,-1.2473,-1.2499,-1.2526,-1.255,-1.2574,-1.2605,-1.2645,-1.2658,-1.2696,-1.2729,-1.278,-1.2801,-1.2831,-1.283,-1.2839,-1.2841,-1.2842,-1.2842,-1.2799,-1.2838,-1.2838,-1.2838,-1.2838,-1.2838,0,-1.241,-1.2433,-1.2465,-1.2507,-1.2534,-1.2542,-1.2575,-1.2598,-1.2631,-1.2661,-1.2691,-1.2733,-1.2768,-1.2798,-1.2834,-1.2852,-1.2858,-1.2861,-1.286,-1.2864,-1.284,-1.2832,-1.2856,-1.2856,-1.2856,-1.2856,-1.2856,-1.2856,-1.2428,-1.2466,-1.2482,-1.2533,-1.2556,-1.2594,-1.2612,-1.2638,-1.2662,-1.2709,-1.2738,-1.2758,-1.2788,-1.2827,-1.2859,-1.2867,-1.288,-1.2882,-1.2891,-1.2868,-1.2866,-1.2864,-1.2856,-1.2884,-1.2884,-1.2912,-1.2912,-1.2912]}]]